www.pogodaiklimat.ru

Погода и климат >> Архив погоды >> Россия >> Хабаровский край >> Богородское


ПОГОДА в Богородском

  • Прогноз погоды в Богородском
  • Монитор погоды в Богородском

АРХИВ ПОГОДЫ в Богородском

Время (UTC), дата Ветер
(напр.,м/с)
 
Видим.   Явления Облачность Т
(С)
Тd
(С)
f
(%)
Тe
(С)
Тes
(С)
Комфортность P
(гПа)
Po
(гПа)
Тmin
(С)
Tmax
(С)
R
(мм)
R24
(мм)
S
(см)
21 16.07 ЮВ 1 50 км 10/10 600 м
[Sc]
+17.7 +15.0 84 +19 +19 1008.2 1004.2 +16.4
00 17.07 ЮЗ 2 50 км 10/8 600 м
[Sc As trans]
+21.4 +16.7 75 +25 +26 комфорт 1007.5 1003.5
03 17.07 Ю 3 50 км 10/5 600 м
[Sc As op Ci sp]
+24.6 +18.0 67 +29 +32 душно 1006.5 1002.5
06 17.07 З 1 50 км 10/4 600 м
[Cb cap As op Ci sp]
+25.8 +18.8 65 +31 +34 очень
душно
1004.8 1000.8
09 17.07 З 1 50 км в посл. час дождь 10/3 600 м
[Sc As op Ci sp]
+23.1 +18.0 73 +29 +29 очень
душно
1004.5 1000.5 +26.4 0.0
12 17.07 штиль 0 50 км {дождь} 10/0
[Ci sp]
+20.4 +19 +19 1004.9 1000.9
15 17.07 Ю 2 50 км 6/0
[Ci sp]
+18.0 +15.7 86 +19 +19 1005.1 1001.1
18 17.07 Ю 1 50 км 8/0
[Ci sp]
+16.2 +14.3 89 +17 +17 1004.8 1000.7
21 17.07 Ю 1 50 км 8/4 600 м
[Sc Ac trans Ci sp]
+16.9 +15.3 90 +18 +19 1004.9 1001.5
00 18.07 ЮЗ 1 50 км 4/3 600 м
[Sc Ac trans]
+20.4 +15.9 75 +24 +33 комфорт 1004.3 1000.3
03 18.07 Ю 2 50 км 5/3 600 м
[Cu Sc Ac lent Ci sp]
+25.9 +18.2 63 +31 +40 очень
душно
1002.6 998.7
06 18.07 ЮЗ 4 50 км 9/3 600 м
[Cb cap Ac cast Ci sp]
+26.7 +17.6 57 +31 +33 душно 1001.1 997.2
09 18.07 ЮЗ 2 50 км 10/6 600 м
[Sc Ac cast Ci sp]
+22.0 +15.8 68 +26 +26 душно 1002.0 998.0 +27.9
12 18.07 З 1 50 км 10/8 600 м
[Sc Ac trans Ci fib]
+18.5 +14.1 76 +20 +20 1003.4 999.3
15 18.07 ЮЗ 1 50 км 10/6 600 м
[Sc Ac trans Ci fib]
+16.8 +13.5 81 +18 +18 1003.7 999.6
18 18.07 ЮЗ 1 50 км 10/10 600 м
[Sc]
+16.1 +13.6 85 +17 +17 1003.7 999.6
21 18.07 ЮЗ 2 50 км 9/5 600 м
[St Ac trans]
+16.6 +14.1 85 +17 +17 1004.4 1000.4 +15.8
00 19.07 Ю 2 50 км 9/9 600 м
[Sc]
+19.9 +14.7 72 +23 +24 комфорт 1005.0 1000.9
03 19.07 Ю 3 50 км 4/4 600 м
[Cb cap]
+24.1 +17.0 65 +28 +36 душно 1004.2 1000.2
06 19.07 Ю 3 50 км 8/5 600 м
[Cb cap Ac trans Ci fib]
+26.7 +18.3 60 +31 +34 душно 1003.9 999.9
09 19.07 ЮЗ 3 50 км 8/4 600 м
[Cb cap Ac trans Ci fib]
+25.1 +17.7 64 +29 +30 душно 1005.1 1001.1 +26.9
12 19.07 ЮВ 1 50 км 4/3 600 м
[Sc Ac trans Ci fib]
+20.9 +16.9 78 +26 +26 душно 1006.8 1002.8
15 19.07 Ю 1 50 км 3/0
[Ci fib]
+18.1 +15.2 83 +19 +19 1008.3 1004.3
18 19.07 ЮЗ 1 50 км 6/6 600 м
[]
+17.1 +15.0 87 +18 +18 1009.0 1005.0
21 19.07 ЮЗ 2 20 км 8/6 300 м
[St Ac trans]
+16.8 +15.1 90 +17 +18 1010.9 1006.8 +16.2
00 20.07 Ю 1 50 км 10/4 300 м
[St Ac trans Ci sp]
+19.1 +16.0 82 +22 +26 комфорт 1011.9 1007.8
03 20.07 СЗ 2 50 км ясно +26.0 +18.8 65 +31 +47 очень
душно
1011.1 1007.1
06 20.07 В 2 50 км 9/5 600 м
[Cb cap Ci sp]
+27.8 +17.3 53 +32 +36 душно 1010.6 1006.7
09 20.07 В 2 50 км 10/6 600 м
[Sc Ci sp]
+25.7 +16.7 58 +29 +30 душно 1011.0 1007.0 +28.7
12 20.07 СВ 2 50 км 10/0
[Ci fib]
+20.8 +15.8 73 +25 +25 комфорт 1012.3 1008.3
15 20.07 ЮВ 1 50 км 10/0
[Ci sp]
+18.5 +15.5 83 +20 +20 1011.8 1007.7
18 20.07 ЮВ 1 50 км 10/0
[Ac trans Ci sp]
+17.0 +14.8 87 +18 +18 1011.2 1007.1
21 20.07 Ю 2 50 км 10/3 300 м
[St Ci sp]
+18.5 +15.8 84 +20 +21 1011.3 1007.2 +16.9
00 21.07 Ю 1 50 км 10/10 600 м
[Cb cap]
+20.2 +16.4 79 +24 +24 комфорт 1011.2 1007.1
03 21.07 С 4 50 км 10/8 600 м
[Sc As op]
+22.5 +17.8 75 +28 +28 душно 1011.5 1007.5
06 21.07 С 6-11
{13}
50 км 10/10 600 м
[Cb cap]
+17.9 +14.4 80 +17 +17 1012.0 1008.0
09 21.07 С 3
{12}
50 км 10/10 600 м
[Cb cap]
+17.1 +13.6 80 +17 +17 1013.3 1009.2 +22.6
12 21.07 С 4 50 км 10/10 600 м
[Cb cap]
+15.9 +13.2 84 +15 +15 1014.4 1010.2
15 21.07 СВ 2 50 км 10/10 600 м
[Cb cap]
+15.6 +12.8 83 +15 +15 1013.8 1009.7
18 21.07 СВ 2 50 км 10/10 600 м
[Cb cap]
+15.7 +12.0 79 +16 +16 1012.5 1008.4
21 21.07 СВ 1 50 км 10/10 600 м
[Sc]
+15.9 +12.3 79 +17 +17 1011.4 1007.3 +25.3
00 22.07 СВ 2 50 км 10/10 600 м
[Sc]
+18.3 +13.1 72 +19 +19 1010.0 1005.9
03 22.07 СВ 1 10 км слаб. ливневой дождь 10/10 600 м
[Cb cap]
+17.6 +15.4 87 +19 +19 1008.0 1003.9
06 22.07 С 2 50 км в посл. час ливневой дождь 10/10 600 м
[Cb cap]
+18.3 +16.0 86 +19 +19 1005.9 1001.9
09 22.07 С 2 50 км 10/4 600 м
[Cb cap Ac lent Ci fib]
+19.6 +16.4 82 +22 +23 комфорт 1004.2 1000.1 +19.7 5
12 22.07 СВ 1 50 км 10/3 600 м
[Sc Ac lent Ci fib]
+17.2 +15.7 91 +18 +18 1003.0 998.9
15 22.07 штиль 0 50 км 10/4 600 м
[Sc Ac As Ci fib]
+15.7 +14.3 91 +15 +15 1000.9 996.9
18 22.07 ЮВ 1 50 км 10/10 600 м
[Sc]
+16.0 +14.5 91 +17 +17 999.2 995.1
21 22.07 ЮЗ 2 50 км 10/8 600 м
[Cb cap As op]
+16.3 +13.8 85 +16 +16 998.8 994.7 +15.3
00 23.07 З 1 10 км слаб. ливневой дождь 10/8 200 м
[Cb cap As op]
+16.4 +14.9 91 +17 +18 997.8 993.8
03 23.07 СЗ 1 10 км слаб. ливневой дождь 10/10 200 м
[Cb cap]
+17.4 +15.6 89 +18 +18 997.6 993.5
06 23.07 Ю 1 10 км слаб. ливневой дождь 10/10 300 м
[Cb cap]
+18.6 +16.8 89 +21 +21 комфорт 998.5 994.5
09 23.07 С 5 50 км {ливн. осадки} 10/10 600 м
[Cb cap]
+17.4 +13.9 80 +17 +17 1000.6 996.5 +18.7 10
12 23.07 С 6-10
{12}
50 км {ливн. осадки} 10/10 600 м
[Cb cap]
+15.0 +12.0 82 +13 +13 1003.2 999.1
15 23.07 С 4
{13}
50 км 10/10 600 м
[Cb cap]
+12.9 +9.6 80 +11 +11 1005.8 1001.6
18 23.07 СВ 3 50 км 10/10 600 м
[Cb cap]
+12.5 +8.8 78 +11 +11 1007.7 1003.5

 

Местоположение метеостанции Богородское (Хабаровский край, Россия): широта 52.38 долгота 140.40 высота над уровнем моря 35 м.

В архиве по умолчанию представлена погода в Богородском за последнюю неделю. Архивные данные за месяц целиком и за предыдущие месяцы, начиная с января 2011 года, Вы можете получить, выбрав интересующий диапазон дат из раскрывающегося списка и нажав кнопку "Ввод!".


*Определитесь, кто Вы:
робот инопланетянин человек

Внимание! Время в таблицах - всемирное. Для получения местного времени необходимо прибавить поправку, которая равна 10 ч.

Смотрите также архив погоды в соседних городах и на ближайших метеорологических станциях:

Погода в Джаоре (Хабаровский край, Россия) (63 км)
Погода в Мариинском (Хабаровский край, Россия) (75 км)
Погода в Погибях (Сахалинская область, Россия) (84 км)
Погода в Николаевск-на-Амуре (Хабаровский край, Россия) (88 км)
Погода в Байдукове (Хабаровский край, Россия) (122 км)
Погода в Удинске (Хабаровский край, Россия) (124 км)
Погода в Циммермановка (Хабаровский край, Россия) (143 км)
Погода в Литке (Хабаровский край, Россия) (175 км)
Погода в Вале (Сахалинская область, Россия) (177 км)
Погода в Ныше (Сахалинская область, Россия) (184 км)

Пояснения к столбцам:

Ветер - указаны скорость ветра в м/с - средняя за 10 мин, порывы в срок и между сроками (в фигурных скобках) и направление, откуда дует ветер: С - северный, СВ - северо-восточный, В - восточный, ЮВ - юго-восточный, Ю - южный, ЮЗ - юго-западный, З - западный, СЗ - северо-западный.
Видимость - горизонтальная дальность видимости в метрах или километрах. При видимости от 1 до 10 км при отсутствии осадков обычно наблюдается дымка, при ухудшении видимости до 1 км и менее - туман. В сухую погоду видимость может ухудшаться дымом, пылью или мглою.
Явления - указаны атмосферные явления, наблюдавшиеся в срок или в последний час перед сроком; фигурными скобками обозначены явления, наблюдавшиеся между сроками (за 1-3 часа до срока); квадратными скобками обозначены град или гололедные отложения с указанием их диаметра в мм.
Облачность - указаны через наклонную черту общая и нижняя облачность в баллах и высота нижней границы облаков в метрах; квадратными скобками обозначены формы облаков: Ci - перистые, Cs - перисто-слоистые, Cc - перисто-кучевые, Ac - высококучевые, As - высокослоистые, Sc - слоисто-кучевые, Ns - слоисто-дождевые, Cu - кучевые, Cb - кучево-дождевые. Подробнее классификацию облаков см. в Атласе облаков (PDF).
T - Температура воздуха - температура, измеренная на высоте 2 м над землей.
Td - Температура точки росы - температура, при понижении до которой содержащийся в воздухе водяной пар достигнет насыщения.
f - Относительная влажность воздуха - влажноcть воздуха, измеренная на высоте 2 м над землей.
Te - Эффективная температура - температура, которую ощущает одетый по сезону человек в тени. Характеристика душности погоды. При расчете учитывается влияние влажности воздуха и скорости ветра на теплоощущения человека.
Tes - Эффективная температура на солнце - температура, которую ощущает человек, с поправкой на солнечный нагрев. Характеристика знойности погоды. Зависит от высоты солнца над горизонтом, облачности и скорости ветра. Ночью, в пасмурную погоду, а также при ветре 12 м/с и более поправка равна нулю.
P - Атмосферное давление - приведенное к уровню моря атмосферное давление.
Po - Атмосферное давление - измеренное на уровне метеостанции атмосферное давление.
Tmin - Минимальная температура - минимум температуры воздуха на высоте 2 м над землей.
Tmax - Максимальная температура - максимум температуры воздуха на высоте 2 м над землей.
R - Количество осадков - Количество выпавших осадков за период времени, мм. При наведении курсора мыши на число - период времени, за который выпало указанное количество осадков.
R24 - Количество осадков - Количество выпавших осадков за 24 часа, мм.
S - Снежный покров - Высота снежного покрова, см. При наведении курсора мыши на число - состояние снежного покрова и степень покрытия местности в баллах.